Location: Peterborough
(44.3091°N, 78.3197°W)
Time: 04:53:30
(UTC-04:00)

A-11 Canister half - Pass Details

Date: 29 March 2023
Orbit: 1513 x 1686 km, 47.2° (Epoch: 08 June)

Event Time Altitude Azimuth Distance (km) Brightness Sun altitude
Exits shadow 06:15:48 - 268° (W) 4,041 10.6 -8.7°
Reaches altitude 10° 06:16:27 10° 265° (W) 3,950 10.5 -8.6°
Maximum altitude 06:20:53 14° 238° (WSW) 3,636 10.4 -7.8°
Drops below altitude 10° 06:25:19 10° 211° (SSW) 3,920 10.7 -7.0°
Sets 06:30:40 0° 188° (S) 4,877 11.4 -6.1°
